Regional Weather Roundup
Issued by NWS

Home | Current Version | Previous Version | Graphics & Text | Print | Product List | Glossary On
Versions: 1 2 3 4 5 6 7 8 9 10 11 12 13 14 15 16 17 18 19 20 21 22 23 24 25 26 27 28 29 30 31 32 33 34 35 36 37 38 39 40 41 42 43 44 45 46 47 48 49 50
954
ASUS43 KFSD 190702
RWRSD

WEATHER ROUNDUP FOR SOUTH DAKOTA
NATIONAL WEATHER SERVICE SIOUX FALLS SD
100 AM CST SUN NOV 19 2017

NOTE: "FAIR" INDICATES FEW OR NO CLOUDS BELOW 12,000 FEET WITH NO
SIGNIFICANT WEATHER AND/OR OBSTRUCTIONS TO VISIBILITY.


SDZ001>005-009-010-012>017-190800-
NORTHWEST AND NORTH CENTRAL SOUTH DAKOTA

CITY           SKY/WX    TMP DP  RH WIND       PRES   REMARKS
BUFFALO          N/A     28  20  71 W10       30.00F WCI  19
FAITH            N/A     29  22  75 W8        30.09F WCI  21
MOBRIDGE       CLOUDY    21  16  81 E5        30.06F WCI  15
$$

SDZ012>016-024>037-041>051-057-063-072>074-190800-
SOUTHWEST AND SOUTH CENTRAL SOUTH DAKOTA

CITY           SKY/WX    TMP DP  RH WIND       PRES   REMARKS
RAPID CTY ARPT CLOUDY    25  15  66 NW6       30.12F WCI  18
PIERRE         CLOUDY    25  22  88 W7        30.12S WCI  17
CUSTER         CLOUDY    28  11  48 W7        30.08F WCI  21
ELLSWORTH AFB  CLOUDY    27  15  62 W5        30.11S WCI  21
PHILIP         CLEAR     27  22  81 W8        30.14S WCI  19
PINE RIDGE     CLOUDY    22  16  78 W3        30.16F
SPEARFISH      FAIR      34  14  44 W10       30.09S WCI  26
WINNER         FAIR      31  22  69 SW8       30.15S WCI  23
$$

SDZ004>011-016>023-039-040-190800-
NORTHEAST SOUTH DAKOTA

CITY           SKY/WX    TMP DP  RH WIND       PRES   REMARKS
ABERDEEN       CLEAR     13  11  92 SW7       30.10F WCI   3
WATERTOWN      CLEAR     21  16  81 W9        30.08R WCI  11
BROOKINGS      CLEAR     18  13  80 W7        30.11S WCI   9
SISSETON         N/A     20  13  74 NW3       30.08R
$$

SDZ017-020-022-023-036>040-048>070-190800-
SOUTHEAST SOUTH DAKOTA

CITY           SKY/WX    TMP DP  RH WIND       PRES   REMARKS
SIOUX FALLS    CLEAR     22  16  78 W7        30.15R WCI  13
HURON          CLEAR     21  15  78 W8        30.15R WCI  11
CHAMBERLAIN    CLOUDY    22  21  93 CALM      30.16S
MITCHELL       CLEAR     24  18  77 SW7       30.17S WCI  16
YANKTON        CLEAR     24  19  81 SW7       30.19F WCI  16
$$

ABBREVIATIONS USED IN REMARKS
   TC - TEMPERATURE IN CELSIUS
  WCI - WIND CHILL INDEX
   HX - HEAT INDEX
  VSB - VISIBILITY





USA.gov is the U.S. government's official web portal to all federal, state and local government web resources and services.